Wind_Speed
69 70 69 67 63 54 46 50 56 52 51 49 46 43 43 47 49 48 53 46 49 49 47 44 43 39 34 34 36 34 35 33 33 29 29 27 28 27 26 26 28 28 26 26 25 23 26 27 29
69 71 72 67 62 59 49 57 55 57 53 49 48 46 50 53 52 49 52 47 49 51 48 45 42 42 41 38 38 36 34 37 36 33 32 28 28 29 28 28 28 29 30 31 29 29 28 28 30
80 75 73 69 66 58 52 60 63 62 56 50 46 48 52 57 54 56 51 49 47 49 49 47 46 46 42 39 39 37 37 34 35 35 33 33 33 32 32 29 29 32 31 34 33 32 31 30 32
85 82 77 71 65 62 59 67 67 62 54 54 51 50 53 54 52 52 52 50 48 48 48 46 44 44 43 40 39 40 36 35 33 32 31 31 31 34 34 33 31 34 33 36 36 35 34 34 32
84 85 81 71 67 70 67 69 68 65 59 59 56 53 56 56 55 52 49 49 49 47 45 45 45 45 44 44 41 40 34 33 34 35 32 31 34 36 37 39 39 37 38 40 39 37 36 35 36
89 86 85 72 70 72 70 76 76 70 68 65 59 60 62 60 57 54 53 54 53 50 48 46 45 43 44 43 43 43 42 39 37 39 43 43 42 40 43 43 42 41 40 41 43 41 37 37 39
102 96 82 83 80 79 77 79 77 78 74 70 68 64 65 65 61 58 57 56 55 54 52 48 48 45 43 41 41 41 41 43 43 43 43 43 40 34 31 37 39 38 39 38 39 42 43 44 42
110 108 99 87 86 82 84 81 80 79 77 77 69 65 67 67 65 62 61 57 56 56 55 52 50 46 46 46 46 46 47 48 48 47 48 44 45 45 46 48 47 49 46 46 46 46 47 47 46
112 110 102 95 93 91 88 86 81 83 83 77 71 70 71 67 67 65 63 61 59 60 56 54 52 52 51 50 48 47 44 45 44 44 44 45 44 44 45 47 46 47 48 50 49 48 48 47 45
120 111 94 101 102 99 95 91 89 90 88 81 73 75 71 72 71 67 67 63 59 59 58 57 56 54 53 53 51 48 47 44 43 41 40 40 42 42 45 48 48 50 50 48 47 46 45 43 43
124 115 106 106 106 106 101 95 95 93 90 87 83 79 80 77 73 70 68 66 66 64 61 60 58 54 53 52 51 49 48 46 44 45 46 46 47 47 49 50 51 52 52 50 48 47 46 44 44
130 116 113 112 110 110 109 105 101 98 95 93 90 90 85 82 78 74 72 70 67 64 62 60 59 55 52 52 52 50 50 49 48 47 47 47 47 50 50 53 53 54 50 50 47 47 46 44 41
139 124 119 117 117 113 112 106 105 106 105 102 94 96 88 85 84 80 76 73 69 66 65 63 61 60 57 54 52 52 51 50 48 47 48 49 50 51 53 53 51 52 51 49 47 45 43 42 41
143 135 128 123 119 120 116 112 107 107 109 105 100 99 90 86 84 83 79 75 72 69 65 65 66 62 61 58 57 55 52 50 50 49 49 50 51 52 52 52 50 48 46 45 43 41 40 41 42
148 137 134 132 127 124 121 117 106 110 111 109 100 102 94 90 86 81 80 77 73 70 68 66 66 63 62 60 59 58 56 55 53 52 53 50 53 52 52 52 49 45 43 40 40 39 40 38 37
155 149 141 135 132 130 129 119 115 115 114 110 103 102 96 94 87 82 81 78 75 73 71 68 66 65 64 61 59 59 59 58 55 57 52 52 52 53 51 48 42 42 44 42 40 39 37 37 36
148 147 146 143 138 136 134 125 121 120 117 114 108 104 99 94 90 85 82 78 76 75 74 71 69 67 66 63 63 63 61 60 57 53 51 52 52 50 47 45 42 42 42 45 44 40 36 36 36
136 145 149 146 143 142 136 130 127 124 122 116 115 109 104 99 93 88 85 81 79 76 76 75 74 69 69 67 66 65 61 57 54 54 51 53 51 48 46 43 43 43 41 44 43 39 36 33 36
114 131 142 146 147 144 142 136 130 127 126 120 120 116 109 102 97 94 90 85 83 81 77 73 73 69 69 68 67 65 60 58 55 54 53 53 49 49 46 43 42 41 40 43 46 44 37 33 35
99 112 127 139 146 143 142 139 136 131 125 124 123 119 114 107 102 97 94 89 84 84 83 80 75 71 71 70 68 67 65 61 58 57 54 53 51 50 47 45 48 46 45 43 43 44 40 35 36
83 90 109 123 137 144 143 143 138 135 130 128 124 121 119 113 105 102 98 92 88 85 84 81 78 74 70 70 70 69 66 60 59 56 55 54 53 52 50 50 49 46 47 45 43 41 43 39 38
70 79 90 105 119 134 143 145 137 131 129 130 125 122 119 117 114 111 106 98 92 89 87 84 82 80 76 74 75 71 67 61 61 59 58 57 55 54 51 53 53 50 47 48 50 45 45 43 43
57 70 79 88 103 119 134 143 139 135 132 125 126 123 122 119 117 113 109 104 99 95 92 89 87 83 79 77 75 73 68 66 64 62 61 60 58 55 52 52 49 52 51 50 51 52 51 46 46
45 61 75 81 91 103 118 131 141 145 144 138 137 134 125 123 116 111 107 104 102 100 97 93 90 86 82 80 78 75 69 69 68 66 64 61 57 54 52 51 52 55 58 55 51 53 53 52 52
34 49 68 77 82 91 103 118 134 145 143 137 132 133 126 121 117 112 108 105 102 100 98 94 91 87 85 83 80 77 74 72 70 70 64 61 57 54 52 50 50 53 54 57 59 56 56 56 56
25 41 56 69 71 78 89 102 120 134 140 142 136 136 129 122 120 114 105 104 104 102 99 95 92 88 86 83 82 79 77 75 74 70 65 61 58 54 53 51 51 53 56 58 60 62 61 57 55
17 30 40 56 64 70 77 87 106 124 133 144 141 139 135 129 122 118 111 105 101 99 99 96 92 89 87 85 83 80 78 77 77 75 71 66 61 59 57 58 58 59 58 57 58 58 59 54 53
6 18 31 44 57 61 63 71 85 103 118 133 144 144 139 134 127 120 115 108 103 100 98 97 95 91 87 86 84 82 82 81 79 77 74 70 65 63 60 60 61 59 58 60 59 57 57 57 59
4 11 25 36 48 51 52 59 72 86 101 120 140 144 142 137 133 125 118 114 109 102 98 96 94 94 91 90 88 86 86 84 82 80 76 71 66 61 63 63 62 59 63 65 61 61 62 62 64
12 1 14 26 37 43 46 48 55 71 91 110 132 142 142 140 136 131 122 117 112 108 104 101 97 95 96 94 92 91 88 86 86 83 80 75 70 58 63 64 49 56 45 65 60 61 66 62 63
Wind_Direction
233 233 235 237 239 235 233 235 235 239 241 237 234 239 237 237 237 241 242 245 243 245 248 247 250 249 250 248 247 251 254 256 257 262 256 252 243 249 248 255 258 257 256 256 258 259 262 260 258
238 236 235 235 238 237 236 240 240 240 241 241 240 243 238 237 239 242 243 243 241 242 244 247 248 249 253 253 251 254 257 260 257 260 255 251 248 247 255 258 256 258 260 257 260 262 266 266 262
239 240 241 239 240 241 235 244 243 241 241 240 238 246 245 241 242 241 242 241 242 244 240 242 248 247 251 251 254 256 254 260 254 255 256 255 256 253 254 256 254 258 261 258 261 262 268 265 263
238 240 240 239 239 235 235 240 242 242 240 238 237 241 240 239 243 241 239 240 241 238 238 243 245 245 247 249 250 253 254 256 257 253 257 256 258 256 250 256 260 262 265 261 260 263 263 263 265
239 239 237 240 238 235 236 240 242 241 238 240 241 241 239 241 242 245 240 239 242 239 237 241 244 245 249 247 248 251 253 254 255 252 252 255 261 261 255 261 264 264 263 258 258 257 260 264 267
237 239 238 236 233 234 234 235 241 241 240 241 241 241 239 239 241 242 239 239 238 241 241 243 246 247 248 250 249 247 249 253 257 257 258 261 265 263 262 262 263 265 266 259 259 262 264 266 277
238 240 236 232 234 233 235 235 240 242 238 240 239 239 239 239 240 241 239 238 236 237 240 243 245 243 243 245 247 245 247 256 260 259 259 260 257 256 258 252 256 257 262 261 266 269 270 273 276
237 237 235 237 238 235 236 236 235 239 239 235 234 238 239 240 240 240 236 237 238 238 238 239 240 238 242 245 250 251 255 258 261 258 264 264 263 262 255 260 265 266 266 265 268 268 267 271 273
237 236 234 237 234 233 232 234 233 236 236 235 235 235 238 241 238 237 234 235 237 238 236 235 238 241 243 246 250 251 252 257 259 261 265 267 268 269 268 267 266 265 267 268 268 269 269 270 267
236 235 232 230 231 231 230 230 231 234 234 233 231 234 237 235 236 235 234 234 234 235 234 235 240 242 245 247 248 249 252 251 256 261 264 267 272 274 274 272 272 271 269 270 269 267 266 266 266
235 233 228 230 231 232 231 230 231 233 233 234 231 231 231 231 231 232 235 235 235 233 236 240 242 242 245 247 248 249 249 252 259 265 270 272 275 277 276 277 274 272 271 270 269 270 268 267 264
233 231 228 227 228 230 231 230 232 231 233 233 230 230 229 231 231 230 232 234 234 234 238 243 244 245 244 246 246 246 249 256 260 267 271 275 275 277 278 274 272 271 269 269 268 271 272 268 262
233 231 229 228 228 227 228 228 228 233 233 233 231 234 230 230 232 232 233 235 233 234 236 239 239 240 243 245 247 249 252 257 264 267 271 274 277 277 277 276 272 272 271 271 273 271 268 265 263
237 233 230 228 228 228 228 226 228 231 232 232 232 233 231 230 233 233 231 231 233 235 236 239 240 241 244 245 247 251 255 260 262 266 271 274 275 274 273 272 271 269 268 271 271 268 263 263 264
237 234 232 230 230 229 228 227 228 228 230 232 229 232 230 228 231 232 232 231 233 235 237 238 240 242 244 246 250 253 255 257 262 266 273 269 273 272 271 268 267 266 265 264 264 264 265 265 258
237 236 233 230 229 229 229 226 226 228 230 232 231 232 229 229 229 231 232 233 234 236 237 237 239 241 243 245 247 251 254 257 262 268 268 270 269 267 267 266 263 262 260 261 260 262 266 265 257
234 234 233 232 230 229 229 227 228 228 230 230 231 231 230 229 229 231 233 233 233 235 236 237 239 241 243 245 248 253 255 258 264 264 265 267 267 266 266 263 255 258 259 261 259 261 264 261 257
232 230 230 229 229 229 229 226 226 229 230 230 232 230 230 229 229 230 233 234 234 234 236 238 239 241 244 246 249 252 255 257 260 261 261 263 262 261 262 260 249 254 259 259 258 259 261 262 260
229 229 229 229 228 227 229 227 225 224 229 228 231 232 232 230 229 230 232 232 233 234 234 235 238 240 243 246 247 249 251 253 253 257 256 259 258 259 257 254 245 249 254 258 259 258 258 262 261
228 226 227 227 228 226 226 227 225 225 226 228 228 231 232 231 229 231 233 233 233 234 234 235 237 237 238 242 244 247 250 252 253 253 252 253 253 255 256 255 245 246 250 254 259 259 255 259 263
230 228 226 226 225 226 224 224 223 225 223 227 228 229 230 231 231 231 232 233 233 233 234 234 235 234 235 238 242 246 247 250 251 248 248 249 251 254 255 255 247 246 248 251 253 255 258 259 261
226 226 226 224 224 224 223 224 220 221 222 225 227 228 229 229 230 231 232 233 233 233 231 232 234 236 238 239 242 243 245 244 244 243 244 246 249 250 253 252 250 243 247 250 253 253 254 258 260
226 222 225 224 222 222 222 221 221 218 219 219 225 225 226 227 228 228 229 230 231 230 230 230 232 234 235 238 240 241 244 244 243 243 246 245 247 248 251 249 251 243 248 253 254 255 256 255 257
223 217 219 222 221 222 221 220 219 217 216 216 219 223 223 225 225 225 225 225 227 229 230 230 232 233 234 236 238 242 240 241 241 241 244 242 245 248 249 248 247 247 247 249 256 256 256 255 257
220 217 217 219 220 219 219 218 219 218 216 216 219 225 225 227 228 228 227 223 225 227 229 230 232 232 234 235 236 237 237 239 239 238 240 242 243 243 245 245 246 247 249 248 250 254 255 258 259
214 219 218 220 220 220 219 218 219 219 216 216 217 221 224 225 227 227 224 225 225 226 228 228 229 231 233 235 236 236 237 236 235 238 241 240 241 242 243 242 243 245 247 249 250 254 257 257 261
230 219 221 219 220 219 220 217 216 218 215 214 216 220 222 223 224 226 226 223 224 226 227 227 227 229 230 233 234 235 236 235 235 237 238 239 240 238 239 244 246 248 251 253 257 260 263 261 259
236 223 216 219 221 221 221 220 217 219 217 214 215 219 222 223 223 224 226 223 223 224 226 227 228 228 229 231 233 234 235 234 236 237 238 238 239 239 241 243 248 253 256 258 260 261 259 259 258
4 218 215 215 218 221 220 217 217 216 218 215 215 217 220 222 223 223 224 225 225 224 225 226 227 230 230 231 231 232 234 235 235 237 238 239 240 245 246 246 250 253 257 256 256 258 257 259 260
30 269 215 215 217 219 218 219 219 217 217 214 214 216 219 221 223 222 223 225 225 225 224 226 228 229 230 229 230 231 233 234 236 237 238 238 238 229 234 245 245 248 254 258 253 259 260 261 258
Height
10754 10757 10762 10767 10775 10787 10795 10790 10787 10793 10797 10804 10811 10816 10819 10819 10822 10826 10827 10835 10840 10842 10845 10849 10853 10858 10861 10864 10867 10870 10871 10874 10875 10876 10878 10880 10882 10884 10885 10887 10888 10889 10889 10890 10890 10891 10892 10893 10894
10741 10744 10749 10757 10769 10779 10787 10774 10780 10781 10789 10797 10803 10807 10810 10811 10814 10819 10821 10828 10831 10835 10839 10843 10846 10851 10854 10858 10861 10864 10866 10869 10870 10871 10873 10876 10877 10880 10881 10883 10883 10883 10884 10885 10886 10887 10887 10888 10889
10726 10730 10736 10747 10761 10775 10774 10765 10766 10771 10782 10789 10795 10798 10800 10800 10806 10810 10815 10821 10825 10828 10832 10836 10840 10844 10848 10852 10855 10858 10861 10863 10864 10866 10869 10871 10872 10874 10876 10877 10877 10879 10879 10881 10880 10881 10882 10883 10884
10712 10715 10726 10740 10756 10761 10759 10750 10751 10762 10774 10778 10784 10789 10788 10790 10795 10801 10808 10813 10817 10820 10825 10829 10833 10838 10841 10845 10848 10852 10855 10857 10858 10860 10863 10865 10867 10868 10870 10872 10872 10873 10874 10875 10875 10876 10877 10877 10878
10692 10699 10714 10732 10742 10743 10744 10738 10741 10751 10761 10767 10775 10778 10778 10782 10787 10794 10802 10806 10810 10813 10817 10823 10827 10831 10834 10838 10841 10845 10848 10850 10852 10855 10857 10860 10861 10862 10864 10865 10865 10867 10868 10869 10869 10871 10872 10873 10873
10672 10681 10701 10722 10722 10723 10730 10720 10727 10738 10748 10755 10765 10766 10765 10772 10778 10786 10792 10797 10802 10806 10810 10816 10819 10824 10827 10831 10834 10837 10841 10843 10846 10848 10851 10853 10855 10857 10857 10857 10858 10859 10860 10862 10864 10866 10866 10867 10868
10659 10664 10690 10691 10701 10706 10714 10705 10714 10721 10734 10744 10747 10754 10755 10762 10771 10777 10785 10789 10794 10799 10802 10808 10811 10816 10819 10823 10827 10830 10834 10837 10839 10841 10844 10846 10848 10849 10849 10850 10850 10851 10854 10856 10857 10858 10859 10860 10861
10636 10642 10661 10682 10690 10696 10693 10694 10697 10710 10717 10722 10734 10746 10746 10750 10759 10768 10776 10781 10784 10789 10794 10799 10803 10808 10812 10816 10820 10823 10826 10828 10830 10833 10835 10838 10840 10843 10845 10844 10843 10845 10848 10849 10850 10851 10852 10853 10854
10605 10616 10652 10671 10667 10671 10674 10676 10685 10691 10695 10712 10728 10728 10733 10746 10748 10757 10764 10771 10777 10780 10785 10789 10794 10800 10804 10808 10811 10815 10817 10820 10821 10825 10828 10830 10832 10833 10835 10836 10836 10838 10841 10842 10843 10843 10844 10845 10846
10574 10604 10646 10629 10636 10647 10654 10656 10666 10671 10681 10698 10716 10715 10726 10729 10735 10746 10753 10759 10767 10771 10775 10780 10785 10791 10795 10799 10803 10806 10809 10811 10813 10817 10820 10822 10823 10825 10825 10825 10827 10828 10831 10833 10833 10835 10835 10837 10837
10550 10589 10602 10608 10615 10625 10636 10645 10648 10657 10669 10683 10699 10701 10704 10712 10723 10733 10740 10749 10755 10759 10766 10772 10776 10781 10786 10791 10795 10798 10801 10803 10806 10809 10812 10813 10815 10816 10814 10815 10818 10818 10820 10822 10824 10824 10825 10827 10828
10509 10557 10572 10583 10589 10603 10617 10624 10633 10643 10649 10658 10676 10679 10692 10700 10711 10719 10728 10735 10745 10753 10758 10764 10768 10773 10778 10782 10786 10791 10793 10796 10798 10800 10803 10805 10805 10805 10805 10806 10807 10809 10810 10812 10814 10815 10816 10817 10818
10485 10523 10539 10555 10565 10579 10591 10611 10613 10626 10622 10639 10660 10661 10684 10690 10698 10706 10715 10725 10735 10743 10749 10754 10757 10762 10768 10772 10778 10781 10784 10788 10791 10791 10792 10796 10796 10796 10795 10795 10797 10799 10800 10802 10805 10806 10807 10808 10809
10455 10497 10512 10527 10542 10552 10569 10585 10586 10607 10603 10616 10638 10644 10670 10680 10682 10693 10704 10715 10725 10731 10738 10744 10747 10753 10757 10762 10768 10772 10776 10780 10781 10782 10784 10787 10786 10787 10786 10786 10788 10790 10792 10794 10795 10797 10799 10799 10800
10418 10461 10484 10504 10520 10531 10545 10562 10585 10579 10584 10592 10622 10628 10653 10662 10667 10681 10690 10700 10709 10716 10724 10732 10736 10743 10747 10753 10759 10763 10767 10770 10772 10774 10776 10775 10776 10776 10777 10779 10780 10782 10784 10786 10788 10790 10790 10791 10793
10380 10413 10449 10471 10491 10511 10517 10549 10556 10558 10566 10581 10602 10609 10632 10646 10656 10665 10675 10686 10695 10705 10712 10719 10725 10731 10736 10742 10748 10753 10757 10760 10762 10764 10767 10766 10767 10767 10768 10770 10772 10774 10776 10779 10781 10783 10783 10784 10786
10343 10381 10412 10429 10460 10472 10489 10524 10534 10537 10549 10563 10578 10592 10611 10629 10641 10650 10661 10673 10683 10693 10698 10708 10713 10721 10724 10730 10737 10742 10746 10749 10751 10754 10756 10755 10756 10757 10759 10761 10764 10767 10768 10770 10773 10776 10776 10777 10779
10309 10340 10365 10396 10420 10439 10464 10495 10505 10516 10526 10547 10555 10574 10592 10611 10626 10636 10647 10659 10669 10680 10686 10694 10700 10710 10712 10719 10725 10730 10735 10739 10741 10741 10744 10745 10746 10748 10750 10753 10756 10759 10761 10762 10765 10768 10770 10771 10772
10283 10306 10337 10370 10385 10411 10436 10462 10481 10495 10504 10524 10539 10551 10571 10594 10608 10619 10630 10643 10653 10664 10675 10681 10688 10698 10702 10709 10716 10717 10722 10726 10729 10731 10733 10734 10737 10739 10742 10744 10748 10751 10753 10755 10757 10760 10763 10765 10765
10260 10279 10309 10335 10357 10388 10409 10435 10451 10471 10492 10505 10515 10534 10552 10572 10589 10605 10615 10629 10640 10650 10660 10666 10675 10683 10690 10694 10701 10705 10710 10715 10717 10719 10722 10725 10727 10729 10732 10736 10739 10742 10745 10747 10750 10752 10754 10756 10758
10246 10265 10281 10303 10326 10355 10386 10399 10426 10455 10468 10479 10496 10515 10530 10551 10576 10587 10598 10611 10624 10635 10645 10655 10661 10667 10675 10681 10686 10691 10696 10703 10705 10710 10713 10715 10717 10720 10723 10727 10730 10733 10736 10739 10741 10743 10746 10748 10751
10229 10243 10258 10279 10300 10326 10352 10381 10412 10432 10454 10468 10476 10493 10512 10531 10550 10564 10579 10594 10608 10619 10628 10637 10645 10651 10661 10667 10670 10680 10684 10691 10693 10695 10700 10704 10706 10710 10713 10717 10719 10724 10728 10730 10733 10735 10737 10740 10742
10215 10231 10245 10262 10280 10295 10323 10355 10398 10415 10426 10451 10457 10462 10478 10498 10520 10542 10561 10575 10586 10597 10610 10620 10627 10637 10648 10651 10658 10666 10672 10676 10679 10684 10689 10694 10696 10700 10703 10707 10710 10714 10717 10721 10723 10725 10728 10729 10732
10207 10219 10232 10245 10259 10279 10301 10332 10357 10375 10377 10397 10413 10422 10450 10470 10496 10524 10543 10556 10566 10580 10593 10603 10613 10624 10634 10639 10645 10652 10659 10662 10667 10673 10676 10682 10686 10690 10693 10697 10700 10703 10706 10709 10712 10714 10717 10719 10721
10202 10211 10219 10229 10242 10260 10278 10303 10322 10344 10377 10399 10418 10425 10449 10469 10487 10507 10525 10537 10550 10565 10577 10589 10598 10610 10615 10623 10630 10637 10643 10649 10652 10658 10663 10670 10674 10679 10682 10685 10688 10691 10694 10697 10700 10702 10705 10708 10710
10198 10204 10211 10223 10238 10254 10266 10286 10303 10324 10363 10382 10399 10405 10427 10448 10468 10485 10507 10521 10533 10546 10560 10572 10581 10592 10599 10608 10614 10622 10630 10637 10639 10645 10652 10657 10662 10667 10670 10674 10678 10681 10683 10685 10689 10691 10694 10697 10699
10199 10203 10213 10220 10232 10243 10255 10271 10286 10303 10334 10360 10382 10385 10403 10425 10448 10468 10486 10501 10516 10531 10543 10553 10562 10571 10582 10591 10600 10608 10615 10621 10627 10631 10638 10642 10648 10653 10658 10661 10665 10669 10672 10675 10678 10681 10683 10685 10688
10200 10204 10210 10218 10224 10233 10248 10263 10281 10296 10320 10346 10364 10370 10386 10409 10431 10451 10467 10483 10496 10510 10525 10537 10546 10556 10566 10575 10584 10591 10600 10606 10614 10618 10624 10629 10635 10640 10646 10650 10653 10658 10661 10663 10666 10668 10671 10673 10675
10202 10205 10207 10213 10221 10231 10245 10257 10270 10286 10303 10330 10347 10355 10369 10386 10409 10431 10449 10465 10478 10494 10509 10521 10532 10539 10551 10559 10568 10574 10582 10591 10598 10605 10613 10618 10624 10628 10634 10638 10641 10643 10645 10648 10652 10654 10655 10657 10658
10208 10208 10210 10214 10220 10230 10242 10253 10264 10275 10288 10306 10326 10342 10353 10368 10387 10413 10433 10447 10462 10477 10489 10501 10512 10523 10531 10540 10549 10557 10567 10576 10582 10592 10597 10605 10611 10617 10615 10621 10628 10634 10630 10629 10636 10637 10638 10641 10643